Regional Weather Roundup
Issued by NWS State College, PA

Home | Current Version | Previous Version | Text Only | Print | Product List | Glossary On
Versions: 1 2 3 4 5 6 7 8 9 10 11 12 13 14 15 16 17 18 19 20 21 22 23 24 25 26 27 28 29 30 31 32 33 34 35 36 37 38 39 40 41 42 43 44 45 46 47 48 49 50
000
ASUS41 KCTP 022003
RWRCTP

REGIONAL WEATHER ROUNDUP
NATIONAL WEATHER SERVICE STATE COLLEGE PA
300 PM EST MON MAR 02 2015

Note: "fair" indicates few or no clouds below 12,000 feet with no
significant weather and/or obstructions to visibility.

* = STATION THAT DOES NOT REPORT PRECIPITATION /E.G. RAIN...SNOW...ETC/
    THUNDER OR FOG.

PAZ002>004-007>009-013>016-020>023-029>032-022100-
WESTERN PENNSYLVANIA

CITY           SKY/WX    TMP DP  RH WIND       PRES   REMARKS
ERIE           SUNNY     25  15  66 W15       30.42S WCI  13
MEADVILLE        N/A     25   8  48 W14       30.36R WCI  13
FRANKLIN*      MOSUNNY   27  12  54 W14G24    30.36R
NEW CASTLE     FAIR      28  12  51 VRB5      30.41S
BEAVER COUNTY  CLOUDY    27  16  63 MISG      30.39S
BUTLER*        MOSUNNY   27  16  63 W14       30.39S
PITTSBURGH INT PTSUNNY   29  17  61 W16       30.39S
PITTSBURGH     CLOUDY    28  12  51 W10G18    30.37S
INDIANA*       CLOUDY    27  18  69 NW10G20   30.38R
LATROBE        PTSUNNY   28  16  59 NW17      30.39S
WASHINGTON CO* PTSUNNY   30  16  55 W8        30.41S
$$

PAZ004>006-010>012-017>019-024>028-033>037-041-042-045-046-049>053-022100-
CENTRAL PENNSYLVANIA

CITY           SKY/WX    TMP DP  RH WIND       PRES   REMARKS
BRADFORD       MIX PCPN  23   7  50 NW22G30   30.23S WCI   8
DUBOIS         MOSUNNY   26  12  55 W15G28    30.27S WCI  14
CLEARFIELD     MIX PCPN  28  13  53 W14G23    30.28S
JOHNSTOWN      CLOUDY    23  12  62 W21G26    30.25R WCI   8
ALTOONA        PTSUNNY   27  14  58 NW16G23   30.29R WCI  15
STATE COLLEGE  PTSUNNY   28  12  50 NW17G23   30.28R
WILLIAMSPORT   MOSUNNY   35  12  38 W16G25    30.25R
SELINSGROVE    SUNNY     35  13  40 NW9       30.28R
FT INDIANTOWN  MOSUNNY   35  13  40 NW8G21    30.25R
CAPITAL CITY   SUNNY     35  13  40 NW18G33   30.27R
HARRISBURG     MOSUNNY   35  17  47 NW20G26   30.27R
YORK           SUNNY     35  15  44 NW18G28   30.27R
$$

PAZ038>040-043-044-047-048-054-055-060>062-067>071-022100-
EASTERN PENNSYLVANIA

CITY           SKY/WX    TMP DP  RH WIND       PRES   REMARKS
SCRANTON       SUNNY     32  11  41 N16       30.19R
MOUNT POCONO   MIX PCPN  29   9  43 NW23G40   30.07R
ALLENTOWN      SUNNY     36  12  37 NW15G28   30.19R
QUAKERTOWN*    CLEAR     36  14  41 W15G23    30.20R
READING        LGT RAIN  36  13  38 NW25      30.22R
LANCASTER      SUNNY     35  15  44 NW18G29   30.24R
COATESVILLE    CLEAR     36  21  55 NW18G24   30.21S
POTTSTOWN      SUNNY     36  16  44 NW16G26   30.22R
BLUE BELL      SUNNY     37  18  44 W9G20     30.21R
DOYLESTOWN     SUNNY     36  15  42 NW18G33   30.18R
WILLOW GROVE   NOT AVBL
NORTH PHILA    SUNNY     40  13  33 NW15      30.22R
PHILADELPHIA   MOSUNNY   39  14  36 W21       30.23R
$$


USA.gov is the U.S. government's official web portal to all federal, state and local government web resources and services.